QPF
0.02 0.02 0.01 0.01 0.01 0.01 0.01 0.01 0.01 0.01 0.01 0.02 0.02 0.01 0.01 0.01 0.02 0.03 0.03 0.02 0.01 0.01 0.01 0.01 0.03 0.06 0.05 0.03 0.03 0.03 0.03 0.03 0.04 0.05 0.05 0.05 0.04 0.04
0.01 0.00 0.00 0.01 0.01 0.01 0.01 0.01 0.01 0.01 0.01 0.01 0.01 0.01 0.01 0.01 0.02 0.03 0.03 0.03 0.02 0.01 0.01 0.01 0.03 0.06 0.11 0.13 0.09 0.07 0.05 0.05 0.06 0.06 0.06 0.04 0.03 0.04
0.01 0.01 0.00 0.00 0.00 0.00 0.00 0.00 0.01 0.02 0.01 0.01 0.01 0.01 0.01 0.01 0.01 0.01 0.02 0.02 0.02 0.01 0.01 0.01 0.01 0.03 0.04 0.14 0.22 0.17 0.10 0.08 0.06 0.08 0.10 0.05 0.04 0.05
0.02 0.01 0.01 0.01 0.00 0.00 0.00 0.01 0.02 0.02 0.02 0.01 0.01 0.01 0.01 0.01 0.01 0.02 0.01 0.01 0.02 0.02 0.02 0.01 0.02 0.03 0.04 0.11 0.25 0.27 0.16 0.11 0.07 0.07 0.13 0.11 0.08 0.06
0.02 0.01 0.01 0.01 0.01 0.01 0.01 0.01 0.02 0.02 0.02 0.02 0.01 0.00 0.01 0.01 0.01 0.01 0.02 0.02 0.01 0.01 0.01 0.01 0.01 0.02 0.03 0.06 0.14 0.24 0.22 0.15 0.10 0.07 0.09 0.10 0.08 0.07
0.02 0.01 0.01 0.01 0.01 0.01 0.01 0.01 0.02 0.02 0.02 0.02 0.01 0.01 0.01 0.01 0.01 0.01 0.01 0.03 0.04 0.03 0.01 0.00 0.00 0.01 0.02 0.03 0.06 0.12 0.16 0.14 0.10 0.08 0.06 0.05 0.06 0.07
0.01 0.01 0.02 0.02 0.01 0.01 0.01 0.01 0.02 0.02 0.02 0.02 0.01 0.01 0.01 0.01 0.01 0.01 0.01 0.02 0.04 0.05 0.03 0.01 0.00 0.00 0.01 0.02 0.03 0.05 0.07 0.09 0.09 0.07 0.06 0.05 0.03 0.03
0.01 0.01 0.01 0.01 0.01 0.01 0.02 0.02 0.03 0.02 0.02 0.02 0.01 0.01 0.01 0.01 0.01 0.02 0.01 0.02 0.03 0.05 0.05 0.02 0.01 0.01 0.01 0.01 0.02 0.02 0.03 0.04 0.05 0.06 0.05 0.04 0.04 0.03
0.01 0.01 0.01 0.01 0.01 0.01 0.01 0.02 0.02 0.03 0.03 0.03 0.02 0.01 0.01 0.01 0.02 0.02 0.01 0.01 0.04 0.05 0.06 0.07 0.03 0.01 0.01 0.01 0.02 0.02 0.02 0.02 0.03 0.04 0.04 0.03 0.03 0.03
0.01 0.01 0.01 0.01 0.01 0.01 0.01 0.01 0.01 0.01 0.03 0.03 0.02 0.02 0.02 0.02 0.02 0.02 0.02 0.01 0.02 0.04 0.07 0.10 0.07 0.02 0.01 0.01 0.02 0.02 0.02 0.02 0.02 0.03 0.03 0.03 0.03 0.03
0.01 0.01 0.02 0.01 0.01 0.02 0.01 0.01 0.01 0.01 0.02 0.02 0.02 0.03 0.04 0.04 0.03 0.02 0.02 0.01 0.01 0.02 0.05 0.07 0.07 0.03 0.02 0.01 0.01 0.02 0.03 0.02 0.02 0.03 0.04 0.04 0.03 0.03
0.01 0.01 0.01 0.01 0.01 0.02 0.01 0.01 0.01 0.01 0.01 0.02 0.02 0.03 0.03 0.04 0.04 0.03 0.02 0.02 0.02 0.02 0.02 0.04 0.05 0.04 0.04 0.02 0.01 0.02 0.02 0.03 0.03 0.04 0.04 0.04 0.04 0.04
0.01 0.01 0.01 0.01 0.01 0.02 0.02 0.02 0.01 0.01 0.01 0.02 0.02 0.02 0.02 0.02 0.02 0.03 0.03 0.03 0.03 0.03 0.04 0.05 0.05 0.04 0.04 0.03 0.02 0.01 0.02 0.02 0.03 0.03 0.04 0.04 0.04 0.04
0.01 0.01 0.02 0.02 0.02 0.02 0.03 0.02 0.02 0.02 0.01 0.01 0.01 0.01 0.01 0.02 0.02 0.03 0.04 0.05 0.05 0.06 0.08 0.10 0.09 0.06 0.04 0.03 0.02 0.01 0.01 0.02 0.03 0.03 0.04 0.04 0.04 0.04
0.01 0.01 0.02 0.02 0.02 0.02 0.03 0.03 0.03 0.02 0.01 0.01 0.01 0.01 0.01 0.01 0.02 0.02 0.02 0.03 0.04 0.05 0.05 0.06 0.07 0.06 0.05 0.03 0.03 0.02 0.02 0.02 0.02 0.02 0.04 0.04 0.04 0.03
0.01 0.01 0.01 0.02 0.02 0.01 0.02 0.04 0.02 0.02 0.02 0.02 0.01 0.01 0.01 0.01 0.01 0.01 0.01 0.01 0.01 0.02 0.02 0.03 0.05 0.06 0.06 0.04 0.03 0.03 0.03 0.04 0.04 0.03 0.03 0.04 0.04 0.04
0.01 0.01 0.01 0.01 0.01 0.01 0.01 0.02 0.03 0.02 0.02 0.02 0.02 0.02 0.01 0.01 0.01 0.01 0.02 0.02 0.02 0.02 0.02 0.03 0.04 0.06 0.08 0.06 0.04 0.03 0.03 0.03 0.03 0.04 0.04 0.04 0.04 0.04
0.03 0.02 0.01 0.01 0.01 0.01 0.01 0.02 0.03 0.03 0.02 0.03 0.03 0.02 0.02 0.02 0.03 0.03 0.03 0.03 0.03 0.03 0.03 0.04 0.05 0.06 0.07 0.08 0.06 0.04 0.03 0.03 0.03 0.03 0.03 0.03 0.03 0.04
0.02 0.03 0.03 0.03 0.02 0.02 0.02 0.02 0.03 0.03 0.03 0.03 0.03 0.03 0.03 0.03 0.03 0.04 0.04 0.03 0.03 0.03 0.03 0.03 0.04 0.05 0.06 0.07 0.06 0.05 0.03 0.02 0.02 0.03 0.03 0.02 0.02 0.03
0.02 0.02 0.03 0.04 0.04 0.04 0.03 0.03 0.03 0.03 0.03 0.03 0.03 0.03 0.03 0.03 0.03 0.04 0.03 0.03 0.03 0.03 0.03 0.03 0.03 0.04 0.05 0.05 0.05 0.04 0.04 0.03 0.02 0.02 0.02 0.02 0.03 0.03
0.03 0.03 0.03 0.03 0.04 0.04 0.04 0.05 0.04 0.04 0.04 0.03 0.03 0.03 0.03 0.03 0.04 0.04 0.03 0.04 0.03 0.03 0.02 0.02 0.02 0.02 0.02 0.03 0.03 0.03 0.02 0.03 0.03 0.02 0.02 0.02 0.02 0.02
0.02 0.03 0.03 0.02 0.02 0.03 0.03 0.03 0.04 0.04 0.04 0.04 0.04 0.03 0.03 0.04 0.04 0.04 0.04 0.04 0.04 0.03 0.02 0.02 0.01 0.02 0.02 0.02 0.02 0.02 0.01 0.01 0.02 0.02 0.02 0.02 0.03 0.03
0.02 0.02 0.02 0.02 0.02 0.02 0.02 0.03 0.03 0.03 0.03 0.04 0.04 0.04 0.04 0.04 0.05 0.06 0.05 0.05 0.05 0.04 0.04 0.03 0.02 0.02 0.03 0.02 0.03 0.03 0.02 0.02 0.02 0.02 0.02 0.02 0.03 0.03
MSLP
1019.61 1019.85 1020.12 1020.39 1020.65 1020.87 1021.04 1021.16 1021.24 1021.30 1021.35 1021.40 1021.46 1021.53 1021.60 1021.67 1021.72 1021.74 1021.74 1021.71 1021.67 1021.63 1021.59 1021.56 1021.55 1021.56 1021.57 1021.57 1021.57 1021.56 1021.53 1021.48 1021.41 1021.32 1021.21 1021.08 1020.92 1020.74
1019.62 1019.85 1020.09 1020.34 1020.57 1020.77 1020.93 1021.06 1021.17 1021.27 1021.37 1021.47 1021.59 1021.71 1021.82 1021.90 1021.96 1021.98 1021.97 1021.93 1021.87 1021.82 1021.78 1021.77 1021.77 1021.80 1021.84 1021.87 1021.89 1021.89 1021.86 1021.80 1021.71 1021.58 1021.43 1021.25 1021.03 1020.79
1019.64 1019.86 1020.09 1020.32 1020.53 1020.71 1020.87 1021.02 1021.16 1021.30 1021.46 1021.62 1021.79 1021.96 1022.10 1022.20 1022.26 1022.27 1022.24 1022.17 1022.10 1022.02 1021.97 1021.95 1021.96 1021.99 1022.04 1022.08 1022.11 1022.11 1022.08 1022.00 1021.88 1021.73 1021.54 1021.32 1021.07 1020.78
1019.65 1019.89 1020.12 1020.34 1020.54 1020.71 1020.88 1021.04 1021.21 1021.40 1021.60 1021.82 1022.04 1022.25 1022.42 1022.53 1022.59 1022.58 1022.52 1022.43 1022.32 1022.22 1022.14 1022.10 1022.10 1022.12 1022.16 1022.20 1022.22 1022.22 1022.17 1022.07 1021.94 1021.77 1021.56 1021.33 1021.06 1020.76
1019.65 1019.91 1020.15 1020.38 1020.58 1020.76 1020.93 1021.11 1021.31 1021.53 1021.77 1022.03 1022.28 1022.51 1022.70 1022.82 1022.87 1022.85 1022.77 1022.65 1022.51 1022.38 1022.28 1022.22 1022.20 1022.20 1022.22 1022.24 1022.24 1022.21 1022.14 1022.04 1021.90 1021.72 1021.52 1021.28 1021.02 1020.73
1019.62 1019.92 1020.18 1020.42 1020.63 1020.81 1021.00 1021.19 1021.40 1021.64 1021.90 1022.18 1022.45 1022.69 1022.88 1023.00 1023.04 1023.01 1022.92 1022.79 1022.64 1022.50 1022.38 1022.30 1022.25 1022.23 1022.22 1022.20 1022.17 1022.12 1022.03 1021.91 1021.77 1021.60 1021.41 1021.21 1020.97 1020.71
1019.58 1019.90 1020.18 1020.43 1020.64 1020.83 1021.02 1021.21 1021.43 1021.67 1021.93 1022.21 1022.48 1022.71 1022.90 1023.02 1023.06 1023.04 1022.95 1022.83 1022.69 1022.55 1022.43 1022.34 1022.27 1022.22 1022.18 1022.13 1022.06 1021.97 1021.86 1021.73 1021.59 1021.44 1021.28 1021.10 1020.90 1020.67
1019.52 1019.84 1020.13 1020.38 1020.60 1020.79 1020.97 1021.16 1021.36 1021.59 1021.83 1022.09 1022.34 1022.57 1022.75 1022.87 1022.92 1022.92 1022.86 1022.76 1022.65 1022.53 1022.43 1022.34 1022.26 1022.19 1022.12 1022.03 1021.93 1021.81 1021.67 1021.53 1021.39 1021.26 1021.12 1020.98 1020.81 1020.61
1019.44 1019.74 1020.02 1020.27 1020.48 1020.67 1020.84 1021.01 1021.19 1021.39 1021.61 1021.84 1022.06 1022.27 1022.44 1022.57 1022.64 1022.67 1022.65 1022.61 1022.54 1022.47 1022.40 1022.33 1022.26 1022.18 1022.08 1021.96 1021.82 1021.67 1021.51 1021.36 1021.22 1021.09 1020.97 1020.85 1020.70 1020.51
1019.35 1019.63 1019.89 1020.12 1020.32 1020.49 1020.65 1020.80 1020.96 1021.12 1021.31 1021.50 1021.70 1021.88 1022.04 1022.18 1022.28 1022.35 1022.38 1022.40 1022.40 1022.38 1022.36 1022.32 1022.26 1022.17 1022.06 1021.92 1021.75 1021.58 1021.40 1021.23 1021.08 1020.96 1020.84 1020.73 1020.59 1020.40
1019.27 1019.51 1019.74 1019.95 1020.14 1020.30 1020.44 1020.57 1020.70 1020.84 1020.99 1021.15 1021.31 1021.48 1021.63 1021.78 1021.90 1022.01 1022.10 1022.18 1022.24 1022.28 1022.30 1022.29 1022.25 1022.18 1022.06 1021.90 1021.72 1021.53 1021.33 1021.16 1021.01 1020.88 1020.76 1020.64 1020.49 1020.28
1019.22 1019.42 1019.63 1019.81 1019.98 1020.13 1020.26 1020.38 1020.49 1020.60 1020.72 1020.85 1020.98 1021.13 1021.27 1021.42 1021.56 1021.70 1021.83 1021.95 1022.06 1022.15 1022.21 1022.23 1022.21 1022.14 1022.03 1021.87 1021.69 1021.49 1021.30 1021.12 1020.97 1020.84 1020.72 1020.58 1020.41 1020.18
1019.21 1019.38 1019.55 1019.72 1019.88 1020.02 1020.14 1020.25 1020.34 1020.43 1020.53 1020.62 1020.73 1020.85 1020.98 1021.12 1021.27 1021.42 1021.57 1021.72 1021.86 1021.97 1022.05 1022.10 1022.09 1022.03 1021.93 1021.78 1021.61 1021.43 1021.25 1021.08 1020.94 1020.81 1020.69 1020.54 1020.35 1020.09
1019.22 1019.37 1019.52 1019.68 1019.83 1019.96 1020.08 1020.18 1020.26 1020.33 1020.40 1020.47 1020.55 1020.64 1020.75 1020.86 1021.00 1021.14 1021.29 1021.44 1021.58 1021.70 1021.79 1021.83 1021.84 1021.79 1021.70 1021.58 1021.43 1021.28 1021.13 1020.99 1020.87 1020.76 1020.64 1020.49 1020.28 1020.00
1019.23 1019.36 1019.51 1019.66 1019.80 1019.93 1020.03 1020.12 1020.18 1020.24 1020.28 1020.33 1020.38 1020.44 1020.51 1020.60 1020.70 1020.82 1020.95 1021.07 1021.19 1021.30 1021.37 1021.41 1021.42 1021.38 1021.31 1021.22 1021.11 1021.00 1020.89 1020.80 1020.71 1020.62 1020.52 1020.38 1020.17 1019.88
1019.19 1019.32 1019.46 1019.61 1019.74 1019.85 1019.94 1020.01 1020.06 1020.09 1020.11 1020.13 1020.14 1020.17 1020.21 1020.26 1020.33 1020.41 1020.50 1020.59 1020.67 1020.74 1020.80 1020.82 1020.82 1020.80 1020.75 1020.69 1020.63 1020.57 1020.52 1020.47 1020.43 1020.38 1020.30 1020.17 1019.98 1019.69
1019.05 1019.19 1019.32 1019.45 1019.57 1019.67 1019.74 1019.78 1019.80 1019.81 1019.80 1019.79 1019.78 1019.77 1019.78 1019.80 1019.83 1019.87 1019.92 1019.97 1020.02 1020.05 1020.08 1020.09 1020.08 1020.07 1020.04 1020.02 1020.01 1020.00 1020.01 1020.02 1020.03 1020.02 1019.97 1019.86 1019.68 1019.40
1018.78 1018.90 1019.03 1019.15 1019.24 1019.30 1019.34 1019.36 1019.35 1019.32 1019.29 1019.25 1019.22 1019.19 1019.18 1019.18 1019.18 1019.19 1019.21 1019.23 1019.24 1019.25 1019.25 1019.25 1019.25 1019.24 1019.25 1019.26 1019.29 1019.34 1019.40 1019.47 1019.52 1019.55 1019.54 1019.45 1019.29 1019.03
1018.33 1018.45 1018.56 1018.64 1018.70 1018.73 1018.73 1018.71 1018.67 1018.62 1018.56 1018.51 1018.46 1018.43 1018.41 1018.39 1018.39 1018.39 1018.39 1018.39 1018.39 1018.39 1018.38 1018.38 1018.38 1018.39 1018.42 1018.48 1018.55 1018.65 1018.76 1018.87 1018.96 1019.02 1019.03 1018.97 1018.83 1018.59
1017.70 1017.80 1017.88 1017.94 1017.96 1017.94 1017.91 1017.85 1017.78 1017.70 1017.63 1017.57 1017.52 1017.49 1017.48 1017.47 1017.48 1017.49 1017.50 1017.50 1017.51 1017.51 1017.51 1017.52 1017.54 1017.58 1017.64 1017.72 1017.84 1017.97 1018.12 1018.26 1018.39 1018.48 1018.52 1018.48 1018.35 1018.14
1016.90 1016.98 1017.02 1017.03 1017.01 1016.96 1016.88 1016.78 1016.69 1016.60 1016.52 1016.46 1016.43 1016.42 1016.43 1016.45 1016.48 1016.52 1016.55 1016.58 1016.61 1016.63 1016.66 1016.70 1016.74 1016.81 1016.90 1017.02 1017.17 1017.34 1017.52 1017.69 1017.85 1017.96 1018.02 1018.00 1017.90 1017.71
1015.94 1015.98 1015.99 1015.96 1015.89 1015.79 1015.68 1015.56 1015.45 1015.36 1015.28 1015.24 1015.22 1015.24 1015.28 1015.34 1015.41 1015.48 1015.55 1015.62 1015.69 1015.75 1015.82 1015.89 1015.98 1016.08 1016.21 1016.37 1016.55 1016.75 1016.96 1017.16 1017.34 1017.48 1017.56 1017.58 1017.51 1017.36
1014.85 1014.85 1014.81 1014.73 1014.62 1014.49 1014.35 1014.22 1014.10 1014.01 1013.95 1013.93 1013.94 1013.98 1014.06 1014.16 1014.26 1014.38 1014.50 1014.62 1014.73 1014.84 1014.95 1015.07 1015.21 1015.36 1015.53 1015.73 1015.94 1016.17 1016.41 1016.64 1016.85 1017.02 1017.14 1017.19 1017.17 1017.07
Thickness
5646 5645 5644 5643 5643 5643 5642 5640 5638 5635 5636 5640 5642 5645 5646 5646 5647 5647 5647 5648 5647 5647 5647 5648 5648 5648 5648 5648 5649 5649 5650 5651 5651 5652 5653 5654 5655 5656
5641 5640 5639 5639 5638 5637 5637 5636 5635 5634 5632 5635 5637 5639 5640 5641 5641 5642 5642 5642 5642 5643 5643 5643 5643 5643 5644 5644 5645 5645 5645 5646 5647 5648 5648 5649 5650 5651
5636 5636 5634 5634 5633 5632 5632 5631 5630 5630 5628 5630 5632 5633 5634 5635 5635 5636 5636 5637 5637 5638 5638 5639 5639 5639 5640 5640 5641 5641 5641 5642 5643 5644 5644 5645 5646 5647
5631 5630 5629 5629 5628 5627 5627 5626 5626 5626 5625 5625 5626 5627 5628 5629 5629 5630 5631 5631 5632 5633 5633 5634 5634 5634 5635 5635 5636 5636 5637 5637 5638 5639 5639 5641 5642 5643
5626 5625 5624 5623 5622 5622 5622 5621 5621 5622 5620 5620 5620 5621 5621 5622 5622 5623 5624 5625 5626 5626 5627 5628 5628 5629 5629 5630 5631 5631 5632 5633 5633 5634 5635 5636 5638 5638
5621 5620 5619 5619 5618 5617 5617 5616 5616 5615 5614 5614 5614 5614 5614 5615 5615 5615 5616 5618 5619 5620 5621 5622 5622 5623 5624 5625 5625 5625 5626 5627 5628 5629 5630 5631 5632 5632
5616 5615 5614 5614 5614 5613 5613 5611 5611 5609 5608 5608 5608 5608 5608 5608 5609 5609 5609 5610 5611 5613 5613 5614 5615 5616 5617 5618 5619 5620 5621 5622 5622 5623 5624 5625 5626 5626
5610 5609 5609 5608 5609 5608 5608 5608 5607 5605 5603 5602 5603 5603 5605 5604 5604 5603 5602 5601 5604 5606 5605 5607 5608 5608 5610 5611 5613 5614 5615 5616 5616 5617 5618 5619 5619 5619
5605 5603 5603 5603 5602 5601 5602 5602 5601 5601 5601 5600 5599 5600 5601 5601 5600 5598 5597 5596 5598 5600 5598 5600 5601 5601 5604 5605 5606 5607 5608 5609 5610 5611 5611 5612 5613 5613
5598 5597 5596 5596 5596 5595 5594 5594 5594 5594 5595 5595 5595 5596 5597 5597 5596 5595 5593 5591 5591 5591 5590 5591 5593 5594 5597 5598 5599 5599 5601 5602 5603 5604 5605 5605 5606 5607
5592 5591 5591 5590 5591 5590 5588 5586 5586 5587 5588 5589 5590 5590 5590 5590 5589 5587 5585 5583 5583 5584 5583 5582 5584 5585 5588 5590 5591 5592 5593 5594 5595 5596 5597 5598 5598 5599
5585 5584 5584 5584 5584 5583 5581 5579 5578 5579 5580 5580 5581 5582 5582 5581 5581 5580 5578 5576 5575 5575 5576 5574 5575 5575 5577 5581 5582 5584 5585 5586 5586 5588 5588 5589 5590 5591
5577 5576 5576 5577 5576 5575 5574 5573 5573 5573 5572 5572 5572 5572 5573 5572 5572 5572 5571 5570 5568 5568 5569 5566 5566 5565 5566 5569 5572 5574 5575 5577 5578 5579 5579 5580 5581 5581
5570 5569 5569 5569 5568 5567 5565 5565 5565 5564 5563 5562 5562 5562 5563 5563 5563 5563 5563 5562 5562 5562 5561 5560 5559 5559 5559 5560 5563 5565 5567 5567 5568 5569 5570 5571 5571 5572
5562 5562 5561 5560 5558 5557 5556 5556 5555 5554 5553 5552 5552 5553 5553 5554 5554 5554 5554 5554 5554 5553 5553 5553 5553 5553 5552 5554 5555 5556 5557 5559 5560 5560 5560 5561 5562 5563
5554 5553 5552 5549 5548 5547 5546 5545 5544 5544 5544 5544 5544 5544 5544 5543 5543 5544 5544 5544 5544 5544 5544 5545 5545 5545 5546 5547 5547 5548 5548 5549 5551 5551 5551 5552 5554 5555
5545 5543 5541 5539 5537 5536 5535 5534 5534 5533 5534 5535 5535 5534 5534 5534 5534 5534 5534 5533 5533 5534 5535 5535 5535 5536 5537 5538 5539 5539 5540 5540 5542 5542 5543 5545 5547 5547
5537 5534 5532 5530 5528 5527 5525 5525 5524 5524 5525 5525 5525 5525 5525 5525 5524 5524 5524 5524 5525 5525 5525 5525 5524 5526 5527 5528 5530 5531 5531 5532 5533 5534 5534 5536 5539 5541
5527 5525 5523 5521 5520 5518 5516 5516 5515 5515 5515 5515 5515 5516 5516 5516 5515 5515 5515 5515 5515 5516 5516 5516 5515 5515 5517 5520 5522 5522 5523 5524 5524 5525 5526 5528 5531 5534
5517 5516 5514 5513 5511 5510 5509 5508 5507 5506 5506 5506 5506 5506 5506 5507 5506 5506 5506 5506 5507 5507 5507 5507 5507 5508 5509 5511 5512 5514 5515 5515 5516 5517 5519 5520 5522 5524
5508 5507 5505 5504 5503 5502 5501 5500 5499 5498 5497 5497 5497 5497 5497 5498 5498 5499 5498 5499 5499 5499 5500 5501 5501 5502 5502 5502 5503 5505 5506 5507 5508 5509 5511 5512 5514 5516
5500 5498 5497 5496 5495 5494 5493 5492 5491 5490 5490 5489 5489 5489 5489 5489 5489 5490 5490 5490 5491 5492 5493 5494 5494 5493 5493 5494 5496 5497 5497 5498 5499 5500 5502 5504 5504 5507
5492 5490 5489 5488 5487 5485 5485 5484 5483 5483 5482 5481 5481 5481 5481 5480 5481 5481 5482 5482 5482 5483 5484 5485 5485 5485 5485 5486 5487 5488 5489 5490 5491 5492 5493 5494 5496 5498